Regional Weather Roundup
Issued by NWS

Home | Current Version | Previous Version | Graphics & Text | Print | Product List | Glossary On
Versions: 1 2 3 4 5 6 7 8 9 10 11 12 13 14 15 16 17 18 19 20 21 22 23 24 25 26 27 28 29 30 31 32 33 34 35 36 37 38 39 40 41 42 43 44 45 46 47 48 49 50
000
ASUS43 KMPX 081901
RWRMN
WEATHER ROUNDUP FOR MINNESOTA
NATIONAL WEATHER SERVICE TWIN CITIES/CHANHASSEN MN
100 PM CST THU DEC 08 2016


NOTE: "FAIR" INDICATES FEW OR NO CLOUDS BELOW 12,000 FEET WITH NO
SIGNIFICANT WEATHER AND/OR OBSTRUCTIONS TO VISIBILITY. N/A MEANS
CURRENT SKY AND/OR WEATHER CONDITIONS ARE NOT AVAILABLE.

MNZ060>063-068>070-082000-
   Twin Cities Metro

CITY           SKY/WX    TMP DP  RH WIND       PRES   REMARKS
TWIN CITIES    FLURRIES  24  14  65 NW15      30.38R WCI  11
ST PAUL        CLOUDY    23  14  68 NW17      30.39R WCI   9
CRYSTAL        CLOUDY    23  12  62 W15       30.37R WCI  10
BLAINE         FLURRIES  25  16  68 NW17G25   30.36R WCI  11
LAKEVILLE      FLURRIES  21  16  79 NW20      30.37S WCI   6
EDEN PRAIRIE   FLURRIES  24  13  62 NW16G25   30.37R WCI  11
SOUTH ST PAUL  CLOUDY    24  14  66 NW14G20   30.37S WCI  12
LAKE ELMO      CLOUDY    25  18  74 NW15      30.36S WCI  12
$$
MNZ001>005-007-008-013>017-022>024-027-028-082000-
   Northwest Minnesota

CITY           SKY/WX    TMP DP  RH WIND       PRES   REMARKS
BEMIDJI        LGT SNOW  17  13  82 NW13      30.39R WCI   4
HALLOCK        CLOUDY    16  10  79 NW18      30.52S WCI  -1
ROSEAU         CLOUDY    18  12  79 NW13      30.45S WCI   4
WARROAD        CLOUDY    18  10  73 NW16      30.44R WCI   3
THIEF RVR FALL CLOUDY    18  13  80 NW16      30.47R WCI   3
CROOKSTON      CLOUDY    16  12  86 N21       30.51S FOG     WCI  -2
FOSSTON        FLURRIES  18  12  79 NW15      30.44S WCI   3
DETROIT LAKES  LGT SNOW  16  12  86 NW18G24   30.45R WCI  -1
MOORHEAD       MIX PCPN  16  10  79 NW18G25   30.53R WCI  -1
PARK RAPIDS    LGT SNOW  18   8  65 NW12      30.38S WCI   5
$$
MNZ006-009>011-018-025>026-082000-
   North Central Minnesota

CITY           SKY/WX    TMP DP  RH WIND       PRES   REMARKS
BAUDETTE       CLOUDY    20  10  65 NW17      30.38R WCI   5
FLAG ISLAND    MOSUNNY   18   9  68 NW26      30.41R WCI  -1
INTL FALLS     PTSUNNY   20  11  68 N17       30.32R WCI   5
WASKISH        CLOUDY    21  16  79 NW7       30.38R WCI  13
BIG FORK       PTSUNNY   23  14  68 NW6       30.33R WCI  16
LONGVILLE      LGT SNOW  19  14  79 NW10G17   30.36R WCI   8
GRAND RAPIDS   FLURRIES  21  14  74 NW14      30.34R WCI   8
CRANE LAKE     FLURRIES  19  12  73 N8G16     30.30S WCI   9
ORR            PTSUNNY   21  12  68 CALM      30.26R
COOK           PTSUNNY   21  12  68 NW5       30.28R WCI  15
$$
MNZ012-019>021-037-082000-
   Northeast Minnesota

CITY           SKY/WX    TMP DP  RH WIND       PRES   REMARKS
DULUTH         CLOUDY    22  15  75 NW17G26   30.24R WCI   8
ELY            FLURRIES  19  14  79 NW9G20    30.23S WCI   9
HIBBING        CLOUDY    20  14  77 NW14      30.28R WCI   7
EVELETH        MIX PCPN  22  14  71 NW12G20   30.28R WCI  11
DULUTH HARBOR  CLOUDY    27  18  69 NW22      30.31R WCI  12
TWO HARBORS    MOSUNNY   27  18  69 NW12G20   30.23R WCI  16
SILVER BAY     CLOUDY    25  18  74 NW8       30.21R WCI  16
GRAND MARAIS     N/A     27  16  63 VRB7      30.21R WCI  19
G MARAIS ARPRT FLURRIES  18  10  73 W13G20    30.13R WCI   4
$$
MNZ029>031-032-039>041-046>048-054>057-064-082000-
   West Central Minnesota

CITY           SKY/WX    TMP DP  RH WIND       PRES   REMARKS
FERGUS FALLS   LGT SNOW  14  10  85 NW22      30.53S WCI  -4
WHEATON        CLOUDY    16  10  79 W18G29    30.55S HAZE    WCI  -1
MORRIS         LGT SNOW  16  10  79 NW23G29   30.48S WCI  -2
ALEXANDRIA     LGT SNOW  16  10  77 NW18G24   30.43S WCI   0
ELBOW LAKE     LGT SNOW  14  11  86 NW23      30.49R WCI  -5
WADENA         MIX PCPN  16   9  73 NW17G26   30.41R WCI   0
GLENWOOD       LGT SNOW  16  10  79 NW24      30.43S WCI  -3
APPLETON       CLOUDY    18  10  73 NW18G25   30.52R WCI   2
BENSON         LGT SNOW  18  10  73 N21G26    30.48S WCI   1
ORTONVILLE     CLOUDY    16   9  73 NW20G26   30.52S WCI  -1
MADISON        CLOUDY    19  12  73 NW16G23   30.52F WCI   5
WILLMAR        LGT SNOW  18  12  79 NW25      30.46S WCI  -1
$$
MNZ033>034-036-042>043-049>051-058-059-082000-
   Central Minnesota

CITY           SKY/WX    TMP DP  RH WIND       PRES   REMARKS
ST CLOUD       FLURRIES  20  13  74 NW21      30.39S WCI   4
PAYNESVILLE    LGT SNOW  19  12  77 W16G23    30.43S WCI   4
AITKIN         MIX PCPN  25  12  58 NW10G16   30.33R WCI  15
PINE RIVER     CLOUDY    19  12  73 NW10      30.39R WCI   8
BRAINERD       CLOUDY    20  11  68 NW14      30.37R WCI   7
STAPLES        FLURRIES  16  10  79 NW15      30.39S WCI   1
LONG PRAIRIE   FLURRIES  19  10  68 W17       30.41R WCI   4
LITTLE FALLS   CLOUDY    19  10  68 NW14      30.39S WCI   6
LITCHFIELD     FLURRIES  19  12  73 NW16G24   30.42S WCI   5
BUFFALO        FLURRIES  22  13  66 W12G17    30.40S WCI  11
MAPLE LAKE     FLURRIES  23  15  70 NW13G21   30.40S WCI  11
HUTCHINSON     CLOUDY    22  15  74 W20G26    30.43R WCI   6
$$
MNZ037-044-045-052-053-082000-
   East Central Minnesota

CITY           SKY/WX    TMP DP  RH WIND       PRES   REMARKS
PRINCETON      FLURRIES  23  16  74 W13G20    30.37R WCI  11
MORA           PTSUNNY   25  16  68 NW14      30.35S WCI  13
CAMBRIDGE      CLOUDY    25  14  63 W15       30.34R WCI  12
RUSH CITY      CLOUDY    25  16  68 NW10G16   30.34R WCI  15
MOOSE LAKE     CLOUDY    23  14  68 NW9G20    30.30S WCI  13
HINCKLEY       CLOUDY    27  18  69 NW13      30.32S WCI  16
CLOQUET        CLOUDY    21  14  73 W17       30.27R WCI   7
MCGREGOR       CLOUDY    23  18  80 NW10G16   30.32S WCI  12
$$
MNZ071>073-080-081-089-090-097-098-082000-
   Southwest Minnesota

CITY           SKY/WX    TMP DP  RH WIND       PRES   REMARKS
MONTEVIDEO     CLOUDY    18  10  73 N15G28    30.52S WCI   3
GRANITE FALLS  CLOUDY    19  13  76 W21       30.52S WCI   3
CANBY          CLOUDY    19   9  66 W18G29    30.53F WCI   4
MARSHALL       FLURRIES  18   9  68 NW23      30.50S WCI   0
REDWOOD FALLS  CLOUDY    18   9  68 NW18G25   30.48S WCI   2
OLIVIA         LGT SNOW  19  12  73 NW23G29   30.46S WCI   2
PIPESTONE      CLOUDY    16   9  73 NW17G24   30.49S WCI   0
WINDOM         FLURRIES  19  10  68 NW22G28   30.46R WCI   3
WORTHINGTON    PTSUNNY   18  10  71 W23       30.47F WCI   0
JACKSON        PTSUNNY   19  10  68 NW16G26   30.45F WCI   5
TRACY          FLURRIES  19  12  76 NW21G26   30.50S WCI   2
SLAYTON        CLOUDY    16   9  75 W22       30.47F WCI  -2
$$
MNZ065>067-074>077-082>085-091>093-082000-
   South Central Minnesota

CITY           SKY/WX    TMP DP  RH WIND       PRES   REMARKS
MANKATO        FLURRIES  18  12  77 NW21G26   30.43S WCI   1
NEW ULM        CLOUDY    18  10  73 NW25      30.45S WCI  -1
ST JAMES       CLOUDY    19  10  68 W22G31    30.47S WCI   3
FAIRMONT       PTSUNNY   20  11  68 NW25      30.44F WCI   2
GLENCOE        FLURRIES  22  17  79 W20G26    30.41S WCI   7
OWATONNA       FLURRIES  19  14  79 W17G24    30.38S WCI   4
WASECA         LGT SNOW  19  14  79 W21G26    30.42R WCI   3
ALBERT LEA     LGT SNOW  21  16  79 NW13G26   30.40R WCI   9
$$
MNZ078>079-086>088-094>096-082000-
   Southeast Minnesota

CITY           SKY/WX    TMP DP  RH WIND       PRES   REMARKS
ROCHESTER      LGT SNOW  21  16  81 NW18      30.33R WCI   6
RED WING       FLURRIES  25  14  63 NW13      30.34S WCI  13
STANTON        LGT SNOW  24  18  79 W14       30.36R WCI  12
DODGE CENTER   FLURRIES  19  16  86 W12       30.35R WCI   7
WINONA         CLOUDY    27  18  69 NW13      30.35R WCI  16
AUSTIN         LGT SNOW  19  12  73 NW17G28   30.38R WCI   4
PRESTON        LGT SNOW  20  14  78 NW16      30.34R WCI   6
$$
ABBREVIATIONS USED IN REMARKS
   TC - TEMPERATURES IN CELSIUS
  WCI - WIND CHILL INDEX
   HX - HEAT INDEX
  VSB - VISIBILITY
$$



USA.gov is the U.S. government's official web portal to all federal, state and local government web resources and services.